www.pogodaiklimat.ru

Погода и климат >> Архив погоды >> Мексика >> Acapulco


АРХИВ ПОГОДЫ в Acapulco

Время (UTC), дата Ветер
(напр.,м/с)
 
Видим.   Явления Облачность Т
(С)
Тd
(С)
f
(%)
Тe
(С)
Тes
(С)
Комфортность P
(гПа)
Po
(гПа)
Тmin
(С)
Tmax
(С)
R
(мм)
R24
(мм)
S
(см)
06 17.08 ЮЗ 2 10 км 5/3 600 м
[Cu Sc Ac und Cs]
+27.5 +24.4 83 +39 +39 очень
душно
1014.1 1013.7 +24.4 +32.0
09 17.08 Ю 2 10 км туман 3/3 660 м
[Cu Sc]
+26.6 +24.0 86 +37 +37 очень
душно
1014.4 1014.1
12 17.08 ЮЗ 1 10 км 3/3 750 м
[Cu Sc]
+26.4 +23.4 84 +36 +36 очень
душно
1013.9 1013.3 +24.6 +32.0
15 17.08 СЗ 1 20 км 8/4 900 м
[Cu med, cong Ac trans]
+27.4 +23.7 80 +37 +41 очень
душно
1013.7 1013.3
18 17.08 СЗ 4 20 км 5/1 900 м
[Cu med, cong Ac trans Ci fib]
+33.2 +24.8 61 +46 +56 опасность
перегрева
1012.3 1011.9 +24.6 +35.0
21 17.08 СЗ 3 20 км 8/1 900 м
[Cu med, cong Ac trans Ci fib]
+34.2 +25.3 60 +48 +55 опасность
перегрева
1010.9 1010.5
00 18.08 З 2 20 км 5/3 600 м
[Cu med, cong Ac trans]
+31.2 +23.8 65 +43 +43 опасность
перегрева
1010.9 1010.4 +24.6 +35.0
03 18.08 З 1 10 км 5/3 900 м
[Cu med, cong Ac trans]
+28.8 +26.0 85 +43 +43 опасность
перегрева
1012.7 1012.3
06 18.08 З 1 10 км 5/3 600 м
[Cu med, cong Ac trans]
+28.2 +26.5 91 +44 +44 опасность
перегрева
1014.4 1013.9 +24.6 +35.0
09 18.08 С 1 10 км туман 10/8 900 м
[Cu med, cong Ac trans]
+27.4 +25.7 90 +40 +40 очень
душно
1013.7 1013.3
12 18.08 СВ 1 10 км 8/5 600 м
[Cu med, cong Ac trans]
+26.8 +23.0 80 +36 +36 очень
душно
1012.0 1011.6 +26.0 +35.0
15 18.08 СВ 1 20 км 8/0 2000 м
[Ac und Cs]
+29.0 +23.2 71 +39 +45 очень
душно
1011.8 1011.4
18 18.08 З 3 20 км 4/0 2000 м
[Ac trans Cs]
+33.1 +25.1 63 +47 +61 опасность
перегрева
1012.0 1011.7 +26.0 +34.3
21 18.08 ЮЗ 3 20 км 3/1 900 м
[Cu med, cong Cs]
+33.6 +26.3 66 +50 +61 опасность
перегрева
1010.6 1010.3
00 19.08 З 2 20 км 3/1 600 м
[Cu med, cong Cs]
+32.5 +26.6 71 +49 +50 опасность
перегрева
1010.2 1009.7 +26.0 +34.4
03 19.08 З 1 10 км 6/3 840 м
[Cu med, cong Ac trans Cs]
+29.2 +26.6 86 +45 +45 опасность
перегрева
1012.5 1012.1
06 19.08 З 1 10 км 8/3 600 м
[Cu med, cong Ac trans Cs]
+28.0 +26.2 90 +42 +42 опасность
перегрева
1013.7 1013.4 +26.0 +34.4
12 19.08 С 1 12 км 9/1 900 м
[Cu med, cong Ac und Cs]
+26.6 +25.5 94 +39 +39 очень
душно
1011.8 1011.5 +25.4 +34.4
15 19.08 З 1 20 км 6/3 900 м
[Cu med, cong Ac und Cs]
+27.0 +25.9 94 +40 +45 очень
душно
1013.0 1012.5
18 19.08 З 1 20 км 6/3 960 м
[Cu med, cong Ac und Cs]
+29.8 +26.8 84 +46 +60 опасность
перегрева
1013.2 1012.8 +25.4 +34.5
21 19.08 З 2 20 км 5/3 960 м
[Cu med, cong Ac und]
+32.8 +26.5 70 +50 +58 опасность
перегрева
1012.5 1011.8
00 20.08 СЗ 2 20 км 5/3 600 м
[Cu med, cong Ac und]
+33.5 +27.7 72 +54 +54 опасность
перегрева
1012.0 1011.5 +25.4 +34.8
03 20.08 Ю 1 20 км 5/3 1000 м
[Cu med, cong Ac und]
+29.8 +26.2 81 +45 +45 опасность
перегрева
1011.1 1010.7
06 20.08 Ю 1 10 км 5/3 600 м
[Cu med, cong Ac und]
+28.6 +25.5 83 +42 +42 опасность
перегрева
1011.1 1010.5 +25.4 +34.8
12 20.08 З 2 10 км 4/4 1000 м
[Cu med, cong]
+27.2 +24.6 86 +39 +39 очень
душно
1012.3 1011.9 +25.5 +34.8
15 20.08 З 1 20 км 4/1 870 м
[Cu hum Ac und]
+30.3 +24.3 70 +42 +49 опасность
перегрева
1012.3 1011.9
18 20.08 ЮЗ 2 20 км 1/1 870 м
[Cu hum]
+33.7 +25.3 62 +48 +67 опасность
перегрева
1011.6 1011.2 +25.5 +34.3
21 20.08 З 3 20 км 3/3 870 м
[Cu med, cong]
+34.0 +25.8 62 +49 +58 опасность
перегрева
1009.5 1009.1
00 21.08 ЮЗ 1 20 км 4/1 600 м
[Cu med, cong Ac und]
+32.9 +26.3 68 +49 +50 опасность
перегрева
1008.8 1008.4 +25.5 +34.9
03 21.08 З 1 10 км 5/3 900 м
[Cu med, cong Ac und]
+29.6 +26.1 82 +45 +45 опасность
перегрева
1011.1 1010.6
06 21.08 З 1 10 км 4/1 600 м
[Cu med, cong Ac und]
+28.3 +26.6 91 +44 +44 опасность
перегрева
1013.0 1012.5 +25.5 +34.9
09 21.08 СЗ 1 10 км 4/1 900 м
[Cu med, cong Ac und Cs]
+27.3 +25.9 92 +41 +41 опасность
перегрева
1012.7 1012.3
12 21.08 СЗ 1 15 км 5/1 900 м
[Cu med, cong Ac und]
+27.2 +26.1 94 +41 +41 опасность
перегрева
1012.0 1011.6 +26.6 +34.9
15 21.08 СВ 1 20 км 3/1 900 м
[Cu hum Ac trans]
+29.9 +25.7 78 +44 +51 опасность
перегрева
1013.2 1012.8
18 21.08 З 2 20 км 3/1 600 м
[Cu hum Ac trans]
+34.8 +26.6 63 +52 +69 опасность
перегрева
1012.0 1011.6
21 21.08 З 2 20 км 4/1 900 м
[Cu hum Ac trans]
+34.1 +26.8 66 1009.5 1009.0
00 22.08 З 3 20 км 8/5 600 м
[Sc diur, vesp As op]
+31.7 +26.3 73 +48 +48 опасность
перегрева
1009.5 1009.0 +26.6 +35.3
03 22.08 ЮЗ 2 10 км 5/5 660 м
[Cu Sc]
+30.4 +25.3 74 +44 +44 опасность
перегрева
1013.0 1012.4
06 22.08 Ю 2 10 км 5/5 600 м
[Cu Sc]
+29.4 +24.8 76 +42 +42 опасность
перегрева
1013.9 1013.4 +26.6 +35.3
09 22.08 Ю 2 7000 м слабая морось 6/6 750 м
[Cu Sc]
+27.2 +24.8 87 +39 +39 очень
душно
1015.3 1014.9 6
12 22.08 ЮВ 1 7000 м слабая морось 6/6 600 м
[Cu Sc]
+26.8 +24.2 86 +37 +37 очень
душно
1013.7 1013.6 7
15 22.08 З 1 20 км 4/1 900 м
[Cu hum Cs]
+29.5 +24.8 76 +42 +50 опасность
перегрева
1012.7 1012.4
18 22.08 ЮЗ 2 20 км 4/1 900 м
[Cu hum Cs]
+32.6 +24.9 64 +46 +64 опасность
перегрева
1013.2 1012.8 +24.0 +34.0
21 22.08 З 3 20 км 4/1 900 м
[Cu med, cong Ac trans Cs]
+33.9 +24.8 59 +47 +56 опасность
перегрева
1012.0 1011.6
00 23.08 З 3 19 км 9/8 600 м
[Cu Sc Ac trans]
+31.5 +24.4 66 +44 +44 опасность
перегрева
1012.3 1011.8 +24.0 +34.9
03 23.08 З 2 10 км 8/4 840 м
[Cu med, cong Ac As]
+28.6 +25.5 83 +42 +42 опасность
перегрева
1013.2 1012.8
06 23.08 З 2 10 км 9/5 600 м
[Cu med, cong Ac As]
+27.2 +24.9 87 +39 +39 очень
душно
1014.8 1014.4 +24.0 +34.9
09 23.08 З 2 10 км 9/5 840 м
[Cu med, cong Ac As]
+27.2 +24.3 84 +38 +38 очень
душно
1012.7 1012.5
12 23.08 З 1 15 км туман 6/4 840 м
[Cu med, cong Ac trans]
+26.5 +23.8 85 +36 +36 очень
душно
1011.1 1010.8 +25.4 +34.9
15 23.08 СВ 1 20 км 3/0 2000 м
[Ac trans Cs]
+30.2 +24.8 73 +43 +51 опасность
перегрева
1011.8 1011.4
18 23.08 ЮЗ 2 20 км 3/1 900 м
[Cu med, cong Cs]
+33.4 +25.1 62 +47 +66 опасность
перегрева
1011.8 1011.3 +25.4 +34.0
21 23.08 З 3 20 км 3/1 840 м
[Cu med, cong Cs]
+33.8 +25.1 61 +48 +59 опасность
перегрева
1008.8 1008.4
00 24.08 З 1 20 км 8/8 600 м
[Cu med, cong]
+31.6 +25.4 70 +46 +46 опасность
перегрева
1008.8 1008.4 +25.4 +34.5
03 24.08 ЮЗ 1 10 км 8/5 840 м
[Cu med, cong Ac und]
+29.9 +25.4 77 +44 +44 опасность
перегрева
1010.0 1009.7

 

Местоположение метеостанции Acapulco (Мексика): широта 16.83 долгота -99.93 высота над уровнем моря 3 м.

В архиве по умолчанию представлена погода в Acapulco за последнюю неделю. Архивные данные за месяц целиком и за предыдущие месяцы, начиная с января 2011 года, Вы можете получить, выбрав интересующий диапазон дат из раскрывающегося списка и нажав кнопку "Ввод!".

Внимание! Время в таблицах - всемирное. Для получения местного времени необходимо прибавить поправку, которая в Acapulco равна -6 ч.

Смотрите также архив погоды в соседних городах и на ближайших метеорологических станциях:

Погода в Chilpancingo (Мексика) (92 км)
Погода в Zacatepec (Мексика) (223 км)
Погода в Cuernavaca (Мексика) (240 км)
Погода в Huajuapan De Leon (Мексика) (253 км)
Погода в Toluca (Мексика) (274 км)
Погода в Geografia Unam (Мексика) (288 км)
Погода в Mexico City (Мексика) (297 км)
Погода в Puebla (Мексика) (310 км)
Погода в Tlaxcala Airport (Мексика) (329 км)
Погода в Tlaxcala (Мексика) (329 км)

Пояснения к столбцам:

Ветер - указаны скорость ветра в м/с - средняя за 10 мин, порывы в срок и между сроками (в фигурных скобках) и направление, откуда дует ветер: С - северный, СВ - северо-восточный, В - восточный, ЮВ - юго-восточный, Ю - южный, ЮЗ - юго-западный, З - западный, СЗ - северо-западный.
Видимость - горизонтальная дальность видимости в метрах или километрах. При видимости от 1 до 10 км при отсутствии осадков обычно наблюдается дымка, при ухудшении видимости до 1 км и менее - туман. В сухую погоду видимость может ухудшаться дымом, пылью или мглою.
Явления - указаны атмосферные явления, наблюдавшиеся в срок или в последний час перед сроком; фигурными скобками обозначены явления, наблюдавшиеся между сроками (за 1-3 часа до срока); квадратными скобками обозначены град или гололедные отложения с указанием их диаметра в мм.
Облачность - указаны через наклонную черту общая и нижняя облачность в баллах и высота нижней границы облаков в метрах; квадратными скобками обозначены формы облаков: Ci - перистые, Cs - перисто-слоистые, Cc - перисто-кучевые, Ac - высококучевые, As - высокослоистые, Sc - слоисто-кучевые, Ns - слоисто-дождевые, Cu - кучевые, Cb - кучево-дождевые. Подробнее классификацию облаков см. в Атласе облаков (PDF).
T - Температура воздуха - температура, измеренная на высоте 2 м над землей.
Td - Температура точки росы - температура, при понижении до которой содержащийся в воздухе водяной пар достигнет насыщения.
f - Относительная влажность воздуха - влажноcть воздуха, измеренная на высоте 2 м над землей.
Te - Эффективная температура - температура, которую ощущает одетый по сезону человек в тени. Характеристика душности погоды. При расчете учитывается влияние влажности воздуха и скорости ветра на теплоощущения человека.
Tes - Эффективная температура на солнце - температура, которую ощущает человек, с поправкой на солнечный нагрев. Характеристика знойности погоды. Зависит от высоты солнца над горизонтом, облачности и скорости ветра. Ночью, в пасмурную погоду, а также при ветре 12 м/с и более поправка равна нулю.
P - Атмосферное давление - приведенное к уровню моря атмосферное давление.
Po - Атмосферное давление - измеренное на уровне метеостанции атмосферное давление.
Tmin - Минимальная температура - минимум температуры воздуха на высоте 2 м над землей.
Tmax - Максимальная температура - максимум температуры воздуха на высоте 2 м над землей.
R - Количество осадков - Количество выпавших осадков за период времени, мм. При наведении курсора мыши на число - период времени, за который выпало указанное количество осадков.
R24 - Количество осадков - Количество выпавших осадков за 24 часа, мм.
S - Снежный покров - Высота снежного покрова, см. При наведении курсора мыши на число - состояние снежного покрова и степень покрытия местности в баллах.